Location: White Ridge parking lot
(35.4984°N, 106.8413°W)
Time: 03:26:35
(UTC-07:00)

XW-2B - Pass Details

Date: 27 October 2019
Orbit: 508 x 528 km, 97.5° (Epoch: 22 November)

Event Time Altitude Azimuth Distance (km) Brightness Sun altitude
Rises 18:39:06 0° 179° (S) 2,621 ? -5.1°
Reaches altitude 10° 18:41:14 10° 184° (S) 1,735 ? -5.5°
Maximum altitude 18:44:53 49° 261° (W) 666 ? -6.2°
Drops below altitude 10° 18:48:31 10° 337° (NNW) 1,737 ? -6.9°
Sets 18:50:39 0° 342° (NNW) 2,624 ? -7.4°
